Regional Weather Roundup
Issued by NWS

Home | Current Version | Previous Version | Graphics & Text | Print | Product List | Glossary On
Versions: 1 2 3 4 5 6 7 8 9 10 11 12 13 14 15 16 17 18 19 20 21 22 23 24 25 26 27 28 29 30 31 32 33 34 35 36 37 38 39 40 41 42 43 44 45 46 47 48 49 50
000
ASUS43 KDTX 081410
RWRMI
MICHIGAN HOURLY REGIONAL WEATHER ROUNDUP
NATIONAL WEATHER SERVICE DETROIT/PONTIAC MI
900 AM EST THU DEC 08 2016

NOTE: "FAIR" INDICATES FEW OR NO CLOUDS BELOW 12,000 FEET WITH NO
SIGNIFICANT WEATHER AND/OR OBSTRUCTION TO VISIBILITY.

MIZ047>049-052>055-059>063-066>070-074>076-081>083-081500-
SOUTHEAST LOWER MICHIGAN

CITY           SKY/WX    TMP DP  RH WIND       PRES   REMARKS
ADRIAN         CLOUDY    25  18  74 W16G23    30.09R WCI  12
ALMA           LGT SNOW  26  19  75 W9G21     30.02R WCI  16
ANN ARBOR      CLOUDY    27  18  69 W16G25    30.04R WCI  15
BAD AXE        FLURRIES  25  18  73 W16G24    29.96R WCI  13
CARO           LGT SNOW  26  19  76 W14G23    29.99R WCI  14
DETROIT CITY   CLOUDY    29  19  66 W12G22    30.04R WCI  19
DETROIT        CLOUDY    29  19  66 W14G23    30.06R WCI  18
FLINT          FLURRIES  27  17  66 W22G29    30.01R WCI  13
GROSSE ILE     FLURRIES  28  20  74 W12G22    30.05R WCI  18
HILLSDALE      FLURRIES  23  18  80 W15G22    30.05R WCI  10
HOWELL         FLURRIES  27  19  70 W18G24    30.02R WCI  14

CITY           SKY/WX    TMP DP  RH WIND       PRES   REMARKS
JACKSON        FLURRIES  26  17  68 W16G25    30.04R WCI  14
LAMBERTVILLE   FLURRIES  28  19  70 W12G18    30.10R WCI  18
LANSING        FLURRIES  26  17  68 W20G29    30.04R WCI  12
LAPEER         NOT AVBL
MASON          CLOUDY    26  19  73 W13G23    30.03S WCI  15
MONROE         FLURRIES  27  20  75 W17       30.07R WCI  15
MT. CLEMENS    FLURRIES  29  18  65 W13       30.00R WCI  18
PONTIAC        FLURRIES  26  18  71 W15       30.00R WCI  14
PORT HOPE        N/A     28  13  53 W12G26    29.92S WCI  18
PORT HURON     FLURRIES  28  21  74 W12G17    30.01R WCI  18
TRI CITIES     CLOUDY    26  18  71 W15G23    30.00R HAZE    WCI  14
MIDLAND        FLURRIES  27  17  66 W8        29.98R WCI  18
TROY           CLOUDY    29  18  64 W10G24    30.04R WCI  20
SAGINAW HB     CLOUDY    28  18  64 W14G20    30.00R WCI  17
$$
MIZ043>046-050>051-056>058-064>065-071>073-077>080-081500-
SOUTHWEST LOWER MICHIGAN

CITY           SKY/WX    TMP DP  RH WIND       PRES   REMARKS
BATTLE CREEK   LGT SNOW  25  21  85 W13       30.07R FOG     WCI  14
BENTON HARBOR  LGT SNOW  26  18  71 W29G36    30.14R WCI  10
BIG RAPIDS     LGT SNOW  25  18  76 W13G20    29.99R WCI  13
COLDWATER      CLOUDY    24  17  74 SW17G23   30.08S WCI  11
FREMONT          N/A    N/A N/A N/A MISG        N/A
HOLLAND        FLURRIES  27  19  72 W16G30    30.08R WCI  15
GRAND RAPIDS   LGT SNOW  26  19  74 W16G24    30.05R WCI  14
IONIA          FLURRIES  25  19  78 W17       30.03R WCI  11
KALAMAZOO      LGT SNOW  25  20  81 W12       30.08R VSB 1   WCI  14
LUDINGTON      LGT SNOW  24  20  85 NW13G21   30.03R WCI  12
MARSHALL       FLURRIES  26  20  78 W13       30.05R WCI  15
MOUNT PLEASANT CLOUDY    25  18  74 W12G17    29.98S WCI  14
MUSKEGON       LGT SNOW  26  18  71 W21G29    30.07R WCI  12
SOUTH HAVEN    CLOUDY    26  19  74 W15G30    30.11R WCI  13
$$
MIZ016>042-081500-
NORTHERN LOWER MICHIGAN

CITY           SKY/WX    TMP DP  RH WIND       PRES   REMARKS
ALPENA         FLURRIES  27  17  66 W16       29.86S WCI  15
BEAVER ISLAND  CLOUDY    28  24  86 W13G22    29.88R WCI  17
BELLAIRE       FLURRIES  27  22  80 W9        29.92S WCI  18
CADILLAC       LGT SNOW  21  17  84 W12G20    29.92R WCI   9
CHARLEVOIX     LGT SNOW  29  26  88 W22G30    29.91R VSB 1   WCI  16
FRANKFORT      LGT SNOW  26  22  83 W21G26    29.97S WCI  12
GAYLORD        LGT SNOW  24  18  77 W15G24    29.85S WCI  11
GRAYLING       FLURRIES  24  17  77 W9        29.90S WCI  14
HARBOR SPRINGS HVY SNOW  28  27  94 W12G22    29.86R VSB 1/4 WCI  18
HOUGHTON LAKE  CLOUDY    23  16  74 W20G26    29.92R WCI   8
MANISTEE       FLURRIES  24  19  81 W21G28    30.00R WCI   9
OSCODA         CLOUDY    27  18  71 MISG      29.92R
PELLSTON       LGT SNOW  27  23  85 W12       29.86R FOG     WCI  17
ROGERS CITY    FLURRIES  27  22  80 W13G18    29.84S WCI  16
TRAVERSE CITY  LGT SNOW  26  21  81 W7        29.94R WCI  18
$$
MIZ007>008-015-081500-
EASTERN UPPER MICHIGAN

CITY           SKY/WX    TMP DP  RH WIND       PRES   REMARKS
KINROSS        FLURRIES  21  18  88 W10       29.80R WCI  10
MACKINAC ISLAN FLURRIES  27  23  87 W15G26    29.83R WCI  15
NEWBERRY       LGT SNOW  21  20  96 W10       29.83R WCI  10
S. S. MARIE    SNOW      26  23  88 W12       29.78R VSB 1/4 WCI  16
MUNISING         N/A     32  25  75 N20G29    29.88R WCI  20
$$
MIZ004>006-011>014-085-081500-
CENTRAL UPPER MICHIGAN

CITY           SKY/WX    TMP DP  RH WIND       PRES   REMARKS
MANISTIQUE     FLURRIES  22  19  88 W12G18    29.88R WCI  10
ESCANABA       PTCLDY    22  15  75 W14       29.94R WCI   9
MENOMINEE      CLOUDY    20  13  74 MISG        N/A
SAWYER-GWINN   LGT SNOW  19  18  93 W9        29.89R WCI   9
$$
MIZ001>003-009>011-084-081500-
WESTERN UPPER MICHIGAN

CITY           SKY/WX    TMP DP  RH WIND       PRES   REMARKS
IRON MOUNTAIN  CLOUDY    20  13  74 W8        29.94R WCI  10
HOUGHTON       SNOW      26  21  81 N15G24    29.96R VSB 1/2 WCI  14
IRONWOOD       LGT SNOW  24  19  81 NW14G20   30.05R WCI  12
$$

ABBREVIATIONS USED IN REMARKS
   TC - TEMPERATURE IN CELSIUS
  WCI - WIND CHILL INDEX
   HX - HEAT INDEX
  VSB - VISIBILITY





USA.gov is the U.S. government's official web portal to all federal, state and local government web resources and services.